Lid_Strength_Index
5 7 8 7 7 7 8 8 9 7 6 7 7 7 6 5 5 5 4 4 4 3 2 2 2 2 1 -0 -0 -0 0 0 1 1 2 1 1 1 0 -0 -1 -1 -1 -1
7 8 6 6 6 7 8 9 9 7 6 7 8 8 6 5 5 4 4 4 4 3 2 2 2 2 1 0 -0 0 0 0 1 1 1 1 1 0 0 -0 -0 -1 -1 -1
8 7 6 6 7 8 8 9 9 9 7 7 8 9 7 6 5 4 4 3 3 3 3 2 2 1 1 0 0 0 0 1 1 0 1 1 0 0 1 0 0 -0 -1 -1
8 7 7 7 8 7 10 7 8 9 10 12 8 13 8 7 6 5 5 4 4 3 3 2 2 1 1 1 -0 -0 -0 1 1 0 1 1 2 2 1 1 0 0 -1 -1
9 8 8 8 8 7 9 7 8 9 10 10 10 12 9 7 8 7 5 4 4 3 3 3 2 1 1 0 0 -0 -0 0 1 1 1 1 1 1 1 1 1 0 -0 -1
7 5 6 7 7 7 7 8 8 8 9 14 11 11 10 8 8 6 5 4 4 3 3 2 2 1 1 0 0 -0 0 1 1 1 1 1 1 1 1 1 2 1 1 0
8 8 6 6 8 7 7 9 16 16 16 16 10 12 10 7 6 6 6 5 4 3 3 2 2 2 1 1 1 0 0 1 1 1 1 1 1 1 1 2 2 2 2 1
12 13 8 6 7 9 9 10 16 20 16 14 10 14 9 6 5 5 4 4 4 4 3 3 2 2 1 1 1 1 1 1 1 1 1 1 0 1 1 1 1 2 1 1
12 12 6 6 6 7 11 13 9 16 13 17 12 10 7 6 6 6 5 5 4 4 3 3 3 2 2 1 1 1 1 1 1 1 1 1 1 1 1 1 1 1 0 1
8 13 8 7 6 7 8 7 14 14 20 19 13 12 11 8 7 6 6 5 4 4 3 3 2 2 1 1 1 1 0 1 1 1 1 1 1 1 1 1 1 2 1 1
7 10 10 8 10 11 11 11 11 12 14 18 17 12 7 8 6 7 6 5 5 4 3 3 2 2 1 1 1 1 1 1 1 1 1 2 2 1 1 1 1 2 2 2
7 10 14 11 7 7 8 10 11 17 16 14 15 15 6 6 6 5 5 5 4 4 3 3 2 2 2 1 1 1 1 1 1 1 1 1 2 1 1 1 1 3 2 2
8 12 16 13 10 9 11 9 9 10 12 17 17 14 6 6 6 5 5 5 4 4 4 3 3 2 2 2 1 1 1 1 1 1 2 1 2 2 2 2 2 2 2 3
7 13 14 17 13 11 13 11 10 13 17 15 14 12 9 7 7 6 6 5 5 4 4 4 3 3 2 2 2 1 1 1 1 1 1 1 2 2 2 1 2 1 1 2
8 15 13 12 11 10 11 12 11 13 12 17 13 13 9 8 7 6 5 5 6 5 4 4 3 3 2 2 2 1 1 1 1 1 1 2 2 2 2 3 3 3 2 3
9 14 12 14 10 10 11 10 10 10 11 11 11 11 7 6 6 6 7 7 7 6 5 4 3 3 3 2 2 2 1 1 1 1 2 2 2 3 4 4 5 5 5 5
12 13 14 14 10 10 14 11 10 10 10 10 14 10 7 8 8 8 8 7 6 6 5 4 3 3 2 2 2 2 1 1 1 2 2 2 2 4 5 6 6 7 8 8
13 13 13 15 12 18 10 8 9 10 10 9 8 8 9 9 9 7 7 7 8 7 5 4 4 3 2 1 1 1 1 1 2 3 2 2 2 4 6 7 8 8 9 10
8 11 15 17 17 12 10 9 10 11 12 8 9 9 10 8 7 9 7 7 7 7 5 4 3 3 2 2 1 1 2 2 3 4 5 3 4 5 6 7 8 9 11 10
8 10 14 15 18 18 10 8 8 8 15 9 9 8 9 10 14 11 7 7 7 6 5 4 4 3 3 2 1 2 2 3 4 5 6 5 4 6 6 7 8 10 10 11
11 11 14 14 16 12 8 8 7 16 13 7 7 9 10 12 11 10 9 8 7 6 5 4 3 3 3 2 2 2 3 4 5 5 6 5 6 6 7 8 10 11 12 12
13 14 13 13 16 18 7 9 13 9 8 8 9 9 11 11 11 11 10 9 8 6 5 4 4 3 2 2 2 3 5 5 4 6 7 8 8 7 7 9 11 11 12 12
14 11 14 12 12 7 6 7 7 8 9 9 9 10 11 12 12 11 10 9 9 7 5 3 3 4 3 3 3 5 5 5 6 7 9 9 8 8 8 6 10 11 10 10
8 7 12 12 9 7 7 7 7 8 9 9 9 11 11 12 11 10 9 6 5 5 5 4 4 5 6 5 4 6 7 7 8 9 10 9 10 10 9 10 8 8 8 10
9 9 11 11 9 9 9 8 9 9 9 10 10 10 10 10 9 8 6 6 5 6 5 5 6 7 7 7 6 6 7 7 8 10 10 10 10 9 10 10 10 10 9 11
8 11 12 13 9 11 11 9 8 10 10 10 11 11 8 8 9 7 7 6 7 7 6 7 7 8 7 7 7 6 7 8 10 11 11 12 10 11 13 14 13 15 15 14